Weather Roundup
Issued by NWS

Home | Current Version | Previous Version | Graphics & Text | Print | Product List | Glossary Off
Versions: 1 2 3 4 5 6 7 8 9 10 11 12 13 14 15 16 17 18 19 20 21 22 23 24 25 26 27 28 29 30 31 32 33 34 35 36 37 38 39 40 41 42 43 44 45 46 47 48 49 50

000
NZUS93 KARX 261110
HRRWXR

CURRENT HOURLY OBSERVATIONS ACROSS
MUCH OF THE UPPER MISSISSIPPI VALLEY
NATIONAL WEATHER SERVICE LA CROSSE WI
600 AM CDT SUN APR 26 2015


...SOUTHEAST MINNESOTA...


CITY           SKY/WX    TMP DP  RH WIND       PRES   REMARKS
ROCHESTER      CLEAR     35  21  56 SE8       30.02R WCI  29
ROCHESTER/MAYO FAIR      38  22  53 SE5       30.02R WCI  34
WINONA         CLEAR     32  30  93 CALM      30.04R
AUSTIN         CLEAR     34  27  75 E3        30.01R
ALBERT LEA     CLEAR     36  28  75 SE6       30.01R WCI  31
DODGE CENTER   CLEAR     34  28  80 SE5       30.01S WCI  30
PRESTON        CLEAR     36  20  51 CALM      30.02R
OWATONNA       CLEAR     34  27  75 CALM      30.02R
FARIBAULT      CLEAR     34  27  75 NE3       30.03R
$$

...ELSEWHERE IN MINNESOTA...


CITY           SKY/WX    TMP DP  RH WIND       PRES   REMARKS
MINNEAPOLIS    CLEAR     36  22  56 N7        30.05R WCI  30
INTNL FALLS    CLEAR     28  21  75 E3        30.12R
DULUTH         CLEAR     32  13  45 E5        30.09R WCI  27
RED WING       CLEAR     36  21  55 CALM      30.03R
REDWOOD FALLS  CLEAR     35  24  64 NE5       30.03R WCI  31
MANKATO        CLEAR     39  25  56 NE8       30.02R WCI  34
WORTHINGTON    CLEAR     34  28  80 NW3       30.02R
FAIRMONT       CLEAR     34  28  80 N7        30.00R WCI  28
$$

...SOUTHWEST WISCONSIN...


CITY           SKY/WX    TMP DP  RH WIND       PRES   REMARKS
LA CROSSE      CLEAR     31  24  75 CALM      30.03R
PRAIRIE DU CHI CLEAR     30  26  84 CALM      30.01S
BOSCOBEL       CLEAR     25  22  88 CALM      30.02R
LONE ROCK      CLEAR     28  22  78 CALM      30.01R
PLATTEVILLE    CLEAR     34  24  67 NE7       29.98R WCI  28
FORT MC COY    CLEAR     23  19  86 CALM      30.04R
CAMP DOUGLAS   CLEAR     21  21  99 W3        30.02R
VIROQUA        FAIR      32  21  62 NE3       30.00R
WIS DELLS      CLEAR     31  22  67 NE5       30.01R WCI  27
$$

...ELSEWHERE IN WISCONSIN...


CITY           SKY/WX    TMP DP  RH WIND       PRES   REMARKS
MILWAUKEE      PTCLDY    37  31  78 N12       29.99R WCI  29
MADISON        PTCLDY    32  25  75 N6        30.00R WCI  26
GREEN BAY      CLEAR     33  21  61 N6        30.03R WCI  28
EAU CLAIRE     CLEAR     30  26  85 NE5       30.04R WCI  25
BLACK RVR FLS  FAIR      21  21 100 CALM      30.04R
MEDFORD        CLEAR     29  21  72 NE7       30.03S WCI  22
WAUSAU         CLEAR     32  20  61 CALM      30.03R
WIS RAPIDS     CLEAR     33  19  56 NE5       30.05R WCI  29
MARSHFIELD     CLEAR     32  21  64 NE8       30.03R WCI  25
RICE LAKE      CLEAR     29  22  73 NE3       30.08R
$$

...NORTHEAST IOWA...


CITY           SKY/WX    TMP DP  RH WIND       PRES   REMARKS
DECORAH        CLEAR     37  18  44 NE3       30.00R
MASON CITY     CLEAR     31  29  92 NE5       30.02R FOG     WCI  26
CHARLES CITY   CLEAR     36  23  60 E8        30.01R WCI  29
OELWEIN        CLEAR     34  23  64 NE7       30.00S WCI  28
$$

...ELSEWHERE IN IOWA...


CITY           SKY/WX    TMP DP  RH WIND       PRES   REMARKS
DES MOINES     PTCLDY    42  36  79 NE6       29.98R
IOWA CITY      CLEAR     39  30  70 NE8       29.98R WCI  33
FORT DODGE     PTCLDY    36  32  87 N3        30.00S
$$

...NORTHERN ILLINOIS...


CITY           SKY/WX    TMP DP  RH WIND       PRES   REMARKS
CHICAGO-OHARE  CLEAR     36  29  75 N7        29.94R WCI  30
CHICAGO-MIDWAY PTCLDY    41  28  60 NE8       29.93R
MOLINE         CLEAR     38  30  73 CALM      29.95R
ROCKFORD       MOCLDY    33  22  63 N8        29.98R WCI  26
PEORIA         CLEAR     39  30  70 N3        29.92R
$$

NOTE: "FAIR" INDICATES FEW OR NO CLOUDS BELOW 12,000 FEET WITH NO
SIGNIFICANT WEATHER AND/OR OBSTRUCTIONS TO VISIBILITY. WIND
SPEEDS ARE IN MILES-PER-HOUR.



USA.gov is the U.S. government's official web portal to all federal, state and local government web resources and services.